www.pogodaiklimat.ru

Погода и климат >> Архив погоды >> Индия >> Мадхья-Прадеш >> Хошангабад


ПОГОДА в Хошангабаде

  • Прогноз погоды в Хошангабаде
  • Монитор погоды в Хошангабаде

АРХИВ ПОГОДЫ в Хошангабаде

Время (UTC), дата Ветер
(напр.,м/с)
 
Видим.   Явления Облачность Т
(С)
Тd
(С)
f
(%)
Тe
(С)
Тes
(С)
Комфортность P
(гПа)
Po
(гПа)
Тmin
(С)
Tmax
(С)
R
(мм)
R24
(мм)
S
(см)
03 12.08 ЮЗ 1 2000 м 9/5 750 м
[Sc Ac trans]
+25.6 +24.4 93 +36 +38 очень
душно
1004.3 970.5 +24.6 1
06 12.08 ЮЗ 1 4000 м 9/5 750 м
[Sc Ac trans]
+29.0 +23.8 74 +40 +46 очень
душно
1003.5 970.1
09 12.08 ЮЗ 1 4000 м 8/4 750 м
[Sc Ac trans]
+31.0 +25.4 72 +45 +52 опасность
перегрева
1001.1 968.0
12 12.08 штиль 0 2000 м {дождь} 8/4 750 м
[Sc Ac trans]
+26.4 +25.3 94 +38 +39 очень
душно
1000.4 966.9 +31.2 14
03 13.08 ЮЗ 1 2000 м 10/5 750 м
[Sc Ac trans]
+26.2 +25.1 94 +38 +40 очень
душно
1002.7 969.1 +25.4 15
06 13.08 ЮЗ 1 4000 м 10/6 750 м
[Sc Ac trans]
+27.4 +25.4 89 +40 +44 очень
душно
1003.4 969.9
09 13.08 ЮЗ 1 4000 м слаб. морось 10/6 750 м
[Sc Ac trans]
+26.6 +25.5 94 +39 +42 очень
душно
1001.9 968.3 2
12 13.08 штиль 0 2000 м {морось} 10/6 750 м
[Sc Ac trans]
+27.0 +25.6 92 +40 +40 очень
душно
1000.9 967.3 +28.1 3
03 14.08 штиль 0 2000 м слаб. дождь 10/5 750 м
[Sc Ac trans]
+24.4 +24.4 100 +34 +36 очень
душно
1002.7 969.0 +24.2 13
06 14.08 штиль 0 2000 м слаб. дождь 10/5 750 м
[Sc Ac trans]
+25.4 +25.1 98 +36 +42 очень
душно
1003.1 969.3 6
09 14.08 З 1 2000 м в посл. час дождь 10/6 750 м
[Sc Ac trans]
+26.4 +24.7 90 +37 +40 очень
душно
1001.3 967.7 8
12 14.08 З 1 2000 м в посл. час дождь 10/6 450 м
[Frnb Ac trans]
+25.2 +24.3 95 +35 +35 очень
душно
1000.0 966.4 +26.6 9
03 15.08 ЮЗ 1 2000 м 10/6 750 м
[Sc Ac trans]
+23.6 +23.6 100 +32 +33 очень
душно
1002.4 968.5 +23.4 55
06 15.08 ЮЗ 1 4000 м 10/5 750 м
[Sc Ac trans]
+24.4 +23.8 96 +33 +38 очень
душно
1003.2 969.3 4
09 15.08 ЮЗ 1 2000 м {дождь} 10/6 450 м
[Frnb Ac trans]
+25.6 +24.7 95 +36 +39 очень
душно
1001.5 967.8 8
12 15.08 ЮЗ 1 2000 м {дождь} 10/6 450 м
[Frnb Ac trans]
+26.6 +24.6 89 +38 +38 очень
душно
1000.0 966.5 +26.7 8
03 16.08 штиль 0 4000 м 9/4 750 м
[Sc Ac trans]
+25.0 +23.5 91 +34 +37 очень
душно
1003.6 969.7 +24.0 12
06 16.08 штиль 0 4000 м 9/4 750 м
[Sc Ac trans]
+26.0 +24.3 90 +36 +45 очень
душно
1003.8 970.0
09 16.08 ЮЗ 1 10 км 5/4 750 м
[Sc Ac trans]
+29.6 +25.4 78 +43 +54 опасность
перегрева
1001.6 968.4
12 16.08 ЮЗ 1 10 км 6/4 750 м
[Sc Ac trans]
+29.4 +24.5 75 +42 +43 опасность
перегрева
1000.0 966.8 +30.3
03 17.08 ЮЗ 1 4000 м 10/4 750 м
[Sc Ac trans]
+26.0 +24.3 90 +36 +38 очень
душно
1004.0 970.2 +24.2 1
06 17.08 ЮЗ 1 4000 м 9/4 750 м
[Sc Ac trans]
+27.0 +24.4 86 +38 +45 очень
душно
1005.1 971.4
09 17.08 штиль 0 4000 м 6/4 750 м
[Sc Ac trans]
+30.2 +23.9 69 +42 +52 опасность
перегрева
1003.3 970.1
12 17.08 ЮЗ 1 10 км 3/3 750 м
[Sc]
+30.6 +24.3 69 +43 +44 опасность
перегрева
1001.7 968.6 +31.0
03 18.08 ЮЗ 1 4000 м 6/3 750 м
[Sc Ac trans]
+26.6 +24.9 90 +38 +43 очень
душно
1006.7 973.0 +24.6 1
06 18.08 штиль 0 4000 м 6/3 750 м
[Sc Ac trans]
+27.8 +25.4 87 +41 +55 опасность
перегрева
1007.8 974.1
09 18.08 ЮЗ 1 2000 м {дождь} 9/5 750 м
[Sc Ac trans]
+26.8 +25.7 94 +40 +45 очень
душно
1005.4 971.7 2
12 18.08 штиль 0 2000 м 10/5 750 м
[Sc Ac trans]
+25.2 +24.6 96 +35 +36 очень
душно
1005.0 971.2 +28.9 8

 

Местоположение метеостанции Хошангабад (Мадхья-Прадеш, Индия): широта 22.77 долгота 77.77 высота над уровнем моря 302 м.

В архиве по умолчанию представлена погода в Хошангабаде за последнюю неделю. Архивные данные за месяц целиком и за предыдущие месяцы, начиная с января 2011 года, Вы можете получить, выбрав интересующий диапазон дат из раскрывающегося списка и нажав кнопку "Ввод!".


*Определитесь, кто Вы:
робот инопланетянин человек

Внимание! Время в таблицах - всемирное. Для получения местного времени необходимо прибавить поправку, которая равна 5.5 ч.

Смотрите также архив погоды в соседних городах и на ближайших метеорологических станциях:

Погода в Райсене (Мадхья-Прадеш, Индия) (61 км)
Погода в Бхопале (Мадхья-Прадеш, Индия) (71 км)
Погода в Пачмарае (Мадхья-Прадеш, Индия) (76 км)
Погода в Бетуле (Мадхья-Прадеш, Индия) (101 км)
Погода в Нарсингпуре (Мадхья-Прадеш, Индия) (146 км)
Погода в Чхиндваре (Мадхья-Прадеш, Индия) (147 км)
Погода в Сагаре (Мадхья-Прадеш, Индия) (156 км)
Погода в Шаджапуре (Мадхья-Прадеш, Индия) (166 км)
Погода в Раджгархе (Мадхья-Прадеш, Индия) (174 км)
Погода в Кхандве (Мадхья-Прадеш, Индия) (178 км)

Пояснения к столбцам:

Ветер - указаны скорость ветра в м/с - средняя за 10 мин, порывы в срок и между сроками (в фигурных скобках) и направление, откуда дует ветер: С - северный, СВ - северо-восточный, В - восточный, ЮВ - юго-восточный, Ю - южный, ЮЗ - юго-западный, З - западный, СЗ - северо-западный.
Видимость - горизонтальная дальность видимости в метрах или километрах. При видимости от 1 до 10 км при отсутствии осадков обычно наблюдается дымка, при ухудшении видимости до 1 км и менее - туман. В сухую погоду видимость может ухудшаться дымом, пылью или мглою.
Явления - указаны атмосферные явления, наблюдавшиеся в срок или в последний час перед сроком; фигурными скобками обозначены явления, наблюдавшиеся между сроками (за 1-3 часа до срока); квадратными скобками обозначены град или гололедные отложения с указанием их диаметра в мм.
Облачность - указаны через наклонную черту общая и нижняя облачность в баллах и высота нижней границы облаков в метрах; квадратными скобками обозначены формы облаков: Ci - перистые, Cs - перисто-слоистые, Cc - перисто-кучевые, Ac - высококучевые, As - высокослоистые, Sc - слоисто-кучевые, Ns - слоисто-дождевые, Cu - кучевые, Cb - кучево-дождевые. Подробнее классификацию облаков см. в Атласе облаков (PDF).
T - Температура воздуха - температура, измеренная на высоте 2 м над землей.
Td - Температура точки росы - температура, при понижении до которой содержащийся в воздухе водяной пар достигнет насыщения.
f - Относительная влажность воздуха - влажноcть воздуха, измеренная на высоте 2 м над землей.
Te - Эффективная температура - температура, которую ощущает одетый по сезону человек в тени. Характеристика душности погоды. При расчете учитывается влияние влажности воздуха и скорости ветра на теплоощущения человека.
Tes - Эффективная температура на солнце - температура, которую ощущает человек, с поправкой на солнечный нагрев. Характеристика знойности погоды. Зависит от высоты солнца над горизонтом, облачности и скорости ветра. Ночью, в пасмурную погоду, а также при ветре 12 м/с и более поправка равна нулю.
P - Атмосферное давление - приведенное к уровню моря атмосферное давление.
Po - Атмосферное давление - измеренное на уровне метеостанции атмосферное давление.
Tmin - Минимальная температура - минимум температуры воздуха на высоте 2 м над землей.
Tmax - Максимальная температура - максимум температуры воздуха на высоте 2 м над землей.
R - Количество осадков - Количество выпавших осадков за период времени, мм. При наведении курсора мыши на число - период времени, за который выпало указанное количество осадков.
R24 - Количество осадков - Количество выпавших осадков за 24 часа, мм.
S - Снежный покров - Высота снежного покрова, см. При наведении курсора мыши на число - состояние снежного покрова и степень покрытия местности в баллах.